Wind_Speed
85 80 68 57 53 47 40 36 25 19 17 20 25 31 36 45 52 60 71 83 95 104 108 110 111 113 114 114 110 109 109 104 98 124 133 128 129 127 126 126 128 131 132 125
86 82 74 63 55 50 44 37 33 23 17 15 18 24 31 35 43 48 56 72 82 91 97 103 107 112 114 115 113 112 109 106 98 101 122 135 135 137 135 132 131 131 134 132
85 82 77 71 58 52 47 42 33 31 22 17 15 18 25 31 36 41 47 56 68 79 86 93 100 104 109 112 113 113 112 108 101 102 107 124 137 140 142 141 137 136 134 127
84 82 78 74 68 57 49 44 41 30 26 23 17 16 20 25 30 35 41 47 55 62 71 79 85 94 100 103 108 113 113 113 107 103 106 112 120 134 144 146 141 142 133 131
85 83 80 76 70 63 55 48 43 40 29 21 22 20 18 20 24 29 33 41 46 52 55 60 69 79 88 95 102 109 113 112 115 108 108 114 113 115 123 138 142 148 141 140
84 83 81 77 74 68 61 52 45 41 37 30 22 19 19 19 20 21 26 34 39 44 49 55 58 62 74 81 90 99 106 111 113 110 111 116 112 104 112 116 122 129 134 139
83 80 81 76 75 69 64 56 51 41 40 35 32 24 17 17 18 20 23 28 34 38 43 49 53 58 63 67 77 88 94 100 105 104 113 108 100 107 112 114 114 115 112 112
78 79 80 78 75 71 67 60 51 49 38 36 31 30 26 20 14 16 22 25 27 30 34 40 46 52 57 61 67 73 79 88 94 98 105 101 96 97 109 115 112 118 119 107
77 79 80 79 75 71 67 64 55 49 46 37 33 25 27 27 23 14 20 24 25 26 28 35 40 45 49 54 59 65 70 75 80 82 88 90 84 94 103 119 119 116 115 107
77 79 78 82 78 73 67 66 61 54 49 40 33 32 25 21 28 26 22 23 24 26 28 31 35 40 44 49 50 57 60 65 67 72 74 70 66 79 99 110 92 98 114 117
76 79 80 81 79 74 69 64 62 58 58 42 38 31 30 24 20 27 24 24 21 26 29 31 33 38 40 45 47 51 54 54 60 60 58 54 66 73 90 88 87 87 108 110
78 80 81 75 78 77 72 68 62 56 58 51 40 36 30 27 22 23 28 27 23 27 28 32 33 36 37 41 43 45 43 45 47 49 51 55 62 59 79 79 75 75 88 94
78 79 78 76 78 76 75 70 66 59 57 60 38 36 34 28 25 22 27 22 22 28 27 32 34 39 37 38 38 33 40 43 40 39 54 49 48 54 68 68 67 69 72 72
81 80 77 77 76 79 76 71 68 60 55 59 49 33 32 31 30 24 25 23 17 25 28 30 33 35 33 36 34 36 38 30 28 42 47 36 48 50 55 55 54 57 60 59
80 78 78 80 79 78 78 72 69 61 55 55 52 40 33 33 32 29 25 25 20 19 22 27 29 26 27 33 36 40 24 24 29 39 34 39 39 41 47 46 45 46 52 52
78 76 80 80 78 79 79 75 69 63 54 51 53 39 38 29 30 31 27 23 22 20 20 21 24 23 24 28 30 30 26 31 30 29 27 35 33 37 38 41 43 42 42 44
81 80 81 82 80 79 80 77 70 65 59 51 47 44 37 33 26 27 30 25 24 22 20 19 20 22 20 22 27 25 25 30 28 25 25 30 30 30 31 36 39 38 34 35
83 84 83 84 82 81 82 80 71 62 60 53 44 41 37 35 29 26 27 26 24 24 22 18 20 20 18 23 27 26 23 27 25 21 22 28 28 26 28 33 34 31 30 27
87 88 86 87 86 81 81 78 72 62 59 52 43 39 33 34 31 26 25 27 23 26 22 18 22 18 19 20 23 24 22 23 21 20 24 26 25 25 25 28 30 32 31 33
91 90 88 89 85 79 76 75 72 62 58 51 41 41 32 31 30 26 26 26 25 27 22 19 22 20 16 18 20 21 19 18 18 20 22 22 20 21 21 24 27 30 30 29
93 90 87 83 80 77 74 73 67 59 55 52 42 42 35 27 29 28 24 24 25 26 25 22 22 19 14 16 19 18 19 17 17 18 20 19 19 19 21 24 25 24 26 27
91 88 86 84 81 77 75 71 64 56 52 48 40 40 34 28 27 25 23 23 24 25 25 24 24 17 16 16 16 16 18 19 16 18 19 18 17 20 22 25 23 22 25 27
86 83 82 81 81 79 72 65 61 54 49 45 38 37 34 27 26 26 22 22 23 25 25 26 25 18 16 16 15 16 18 20 19 18 19 18 16 19 21 22 23 24 29 30
81 80 81 80 79 72 68 61 56 50 46 41 37 34 32 27 25 25 22 22 23 23 23 26 26 20 15 16 17 17 18 21 21 20 21 20 17 19 22 22 23 28 25 30
80 75 72 75 75 69 62 58 53 45 43 38 36 32 30 28 25 25 22 21 21 23 24 25 26 23 18 17 18 18 17 21 23 22 23 23 21 21 22 23 22 26 28 29
71 66 68 68 64 64 59 53 51 43 38 38 34 30 31 28 29 22 20 23 20 23 24 24 25 24 21 18 18 20 20 19 24 25 24 26 26 25 25 25 25 26 28 26
60 61 63 61 58 58 55 50 47 40 37 39 31 30 28 31 34 22 21 23 21 23 24 23 24 25 23 19 17 19 21 22 20 24 26 25 26 28 28 27 30 31 30 30
Wind_Direction
358 360 0 357 353 349 347 343 334 310 286 270 260 253 247 240 237 234 231 232 234 234 234 232 231 233 236 240 240 241 241 240 236 236 237 238 239 239 240 243 244 246 246 245
356 359 0 0 357 353 349 348 340 329 310 292 271 257 252 248 243 237 233 234 235 236 236 234 234 233 234 238 240 241 241 240 237 237 236 236 236 239 240 241 244 245 247 247
355 358 358 0 358 355 353 348 350 338 327 313 294 269 256 249 245 242 236 237 237 237 237 236 236 236 236 237 239 241 243 241 238 237 238 238 236 237 241 241 243 245 248 250
354 355 357 359 360 356 354 353 347 350 334 321 308 284 264 252 247 244 242 241 240 240 239 240 236 238 238 238 239 241 242 242 241 237 238 240 239 238 238 241 244 246 248 251
353 353 355 357 359 358 353 351 354 345 348 331 314 303 285 266 254 247 243 243 243 244 244 241 239 238 238 237 237 238 243 243 243 239 239 240 240 242 242 243 242 244 246 247
351 350 353 354 356 358 355 349 350 353 345 343 333 305 294 284 271 256 248 245 243 242 243 243 241 238 240 239 239 240 241 243 244 243 243 242 243 243 245 245 247 248 247 247
350 350 349 352 353 356 355 352 344 349 352 346 340 332 309 282 283 271 257 249 245 242 241 243 242 240 239 238 239 239 240 243 244 245 245 244 244 243 244 247 249 251 249 248
348 349 349 349 350 353 354 352 347 338 349 350 346 335 325 315 276 276 268 259 255 252 247 247 245 244 242 241 241 240 241 243 244 244 245 246 244 244 245 247 247 249 252 252
346 347 348 349 348 349 353 351 348 339 335 347 350 341 330 314 307 292 269 269 264 259 255 248 246 246 245 243 243 243 244 244 245 246 247 248 245 245 245 245 243 245 250 251
341 343 344 347 346 345 351 351 347 341 330 337 345 344 335 308 307 305 294 271 268 268 263 256 253 250 247 249 247 246 247 247 248 248 248 249 248 245 245 246 247 244 246 246
338 339 341 343 345 344 346 350 347 344 330 331 337 342 342 322 309 299 289 273 261 263 270 268 255 252 252 251 250 247 245 248 250 251 255 248 239 236 245 245 242 238 243 244
333 335 338 340 342 342 342 346 344 343 334 325 331 335 336 330 312 301 290 285 276 255 251 257 262 261 254 253 255 255 256 253 252 251 252 246 246 240 246 246 244 239 239 243
328 331 336 338 339 338 340 342 342 342 335 322 328 332 331 327 314 304 298 294 274 259 247 248 252 260 261 260 257 260 253 252 253 254 250 247 248 245 246 246 245 243 243 239
326 329 332 335 336 335 335 339 338 340 335 325 323 327 324 322 315 311 304 300 277 262 246 244 249 259 262 264 265 258 251 257 253 250 255 253 247 248 252 250 248 246 246 242
323 326 329 332 333 333 334 335 334 336 334 327 321 322 322 324 317 312 308 304 297 280 265 253 252 258 264 264 260 264 273 268 255 250 251 252 251 251 255 257 251 242 242 241
321 324 326 330 329 330 330 333 331 331 333 326 320 320 315 318 317 312 308 304 301 294 279 268 260 259 263 268 269 269 264 257 257 259 254 251 248 246 248 250 250 249 245 239
317 319 322 325 326 326 325 328 327 328 329 324 321 317 314 313 314 313 306 306 304 299 289 276 271 268 272 283 278 272 262 255 254 256 252 253 250 249 247 246 246 248 247 243
313 313 318 320 321 324 321 323 323 325 324 321 319 314 311 310 315 311 306 303 301 300 294 282 275 279 283 283 276 273 262 253 254 253 252 250 247 245 241 242 241 235 233 235
308 310 312 313 316 318 318 318 317 321 320 317 317 310 307 306 309 308 305 299 299 293 296 294 277 275 277 278 277 272 264 252 255 251 247 245 241 242 238 236 234 228 223 218
305 306 307 308 312 313 313 313 313 319 315 313 312 308 303 301 302 306 303 298 295 291 294 298 283 278 276 280 279 269 260 248 241 248 248 247 243 245 241 226 224 223 220 220
301 303 304 307 308 310 309 307 309 315 310 309 308 307 303 298 302 303 299 295 288 287 292 295 287 277 278 276 274 267 247 233 238 242 244 240 238 232 228 227 224 220 221 221
298 299 301 303 304 305 303 301 307 308 306 303 303 302 300 294 294 295 296 291 285 284 285 287 288 291 281 274 274 265 249 232 225 235 238 234 230 233 225 222 220 218 221 221
296 298 299 301 302 299 296 300 302 303 300 298 296 298 295 289 290 292 292 287 281 277 280 281 284 292 280 274 273 268 254 239 224 223 229 228 227 231 227 218 216 217 216 213
293 294 296 297 293 292 293 297 297 297 294 293 290 291 289 287 289 289 290 287 280 275 275 275 278 284 277 264 267 266 259 244 231 224 223 219 218 224 225 215 213 215 212 214
289 291 292 289 287 289 291 292 291 292 289 286 283 286 283 284 285 283 287 286 278 269 267 271 273 276 277 265 257 256 262 255 242 229 228 223 216 213 219 215 211 218 218 216
289 286 281 281 283 284 286 287 287 286 281 279 278 283 282 284 282 283 285 280 272 265 263 263 268 268 270 267 253 249 248 252 249 238 228 231 220 212 213 212 214 219 217 225
281 276 276 278 279 279 281 282 281 280 276 274 276 277 284 282 281 287 282 278 275 267 261 257 260 263 265 265 257 242 238 243 244 243 235 227 231 221 214 216 213 216 225 224
Height
10287 10272 10258 10244 10229 10217 10207 10199 10194 10190 10187 10186 10186 10187 10189 10191 10196 10203 10209 10213 10217 10225 10238 10258 10273 10280 10286 10291 10306 10316 10328 10353 10383 10385 10394 10411 10409 10416 10417 10414 10420 10424 10435 10462
10284 10270 10257 10243 10229 10217 10205 10197 10188 10184 10181 10178 10177 10178 10178 10181 10185 10190 10196 10196 10200 10206 10221 10239 10252 10260 10266 10274 10284 10292 10306 10324 10354 10361 10364 10364 10376 10378 10385 10393 10396 10401 10406 10431
10283 10269 10255 10242 10229 10216 10205 10195 10188 10180 10176 10173 10170 10170 10169 10170 10174 10178 10181 10183 10185 10192 10202 10215 10229 10239 10250 10259 10266 10274 10280 10296 10321 10333 10331 10332 10348 10358 10356 10366 10375 10380 10388 10419
10281 10267 10254 10241 10229 10215 10205 10195 10184 10180 10172 10167 10165 10163 10162 10163 10164 10166 10170 10174 10175 10178 10187 10198 10214 10220 10230 10241 10250 10249 10256 10268 10286 10304 10310 10303 10313 10326 10334 10340 10358 10360 10387 10394
10279 10265 10252 10241 10228 10216 10203 10194 10185 10176 10172 10166 10161 10158 10156 10156 10156 10157 10160 10161 10165 10168 10177 10184 10191 10198 10206 10213 10224 10228 10229 10246 10247 10276 10282 10276 10289 10303 10319 10321 10333 10333 10359 10368
10277 10263 10252 10239 10227 10215 10203 10191 10184 10176 10168 10162 10158 10155 10152 10150 10150 10150 10151 10151 10153 10156 10160 10164 10173 10183 10182 10195 10202 10207 10213 10215 10225 10245 10255 10256 10267 10306 10292 10295 10298 10310 10330 10355
10274 10261 10248 10238 10226 10216 10204 10192 10180 10176 10168 10161 10154 10149 10147 10146 10144 10144 10141 10140 10142 10145 10148 10150 10155 10160 10165 10173 10176 10179 10190 10196 10200 10218 10216 10228 10271 10274 10270 10274 10280 10281 10298 10314
10272 10260 10247 10235 10225 10216 10204 10192 10181 10169 10168 10161 10154 10147 10143 10140 10141 10139 10136 10134 10136 10138 10142 10142 10143 10145 10149 10153 10159 10163 10168 10170 10180 10186 10192 10211 10235 10259 10252 10251 10267 10260 10256 10289
10269 10258 10245 10233 10221 10212 10204 10191 10180 10168 10160 10160 10154 10148 10142 10135 10132 10134 10131 10130 10129 10129 10131 10131 10131 10132 10134 10138 10142 10145 10148 10153 10157 10170 10176 10187 10225 10228 10225 10203 10202 10244 10250 10270
10264 10254 10243 10231 10218 10206 10201 10190 10178 10166 10155 10155 10152 10145 10140 10134 10128 10126 10127 10124 10123 10122 10122 10122 10123 10122 10123 10123 10132 10131 10136 10137 10146 10149 10154 10176 10204 10199 10173 10167 10223 10233 10212 10216
10259 10249 10239 10228 10215 10203 10194 10190 10177 10164 10145 10149 10146 10142 10136 10130 10126 10118 10118 10117 10118 10117 10115 10114 10113 10111 10112 10112 10115 10115 10119 10127 10128 10135 10146 10162 10152 10156 10135 10154 10172 10195 10177 10188
10252 10243 10234 10223 10212 10200 10190 10183 10174 10164 10148 10138 10139 10134 10129 10123 10119 10114 10110 10109 10111 10110 10110 10106 10103 10102 10104 10104 10102 10103 10112 10115 10120 10124 10128 10128 10125 10142 10124 10135 10152 10164 10158 10168
10244 10236 10227 10217 10206 10194 10185 10178 10169 10159 10146 10124 10137 10129 10120 10117 10112 10108 10101 10102 10101 10100 10101 10098 10096 10093 10095 10092 10092 10098 10095 10096 10107 10113 10100 10111 10116 10115 10106 10117 10132 10140 10143 10159
10234 10227 10218 10210 10199 10188 10177 10171 10163 10155 10144 10124 10118 10126 10116 10109 10103 10101 10096 10092 10092 10089 10091 10089 10087 10086 10087 10083 10082 10082 10080 10092 10099 10090 10090 10105 10096 10098 10097 10105 10119 10126 10129 10139
10224 10218 10209 10201 10190 10180 10168 10163 10154 10148 10139 10126 10111 10112 10110 10101 10095 10092 10089 10085 10082 10081 10078 10079 10079 10079 10077 10073 10072 10069 10081 10084 10083 10077 10086 10084 10087 10090 10087 10094 10101 10110 10114 10121
10213 10207 10199 10192 10182 10171 10160 10154 10145 10139 10134 10124 10107 10106 10100 10097 10089 10084 10081 10078 10074 10072 10070 10069 10068 10069 10069 10067 10066 10068 10070 10068 10069 10071 10075 10074 10078 10077 10082 10082 10085 10093 10103 10111
10200 10194 10188 10182 10173 10162 10150 10147 10138 10129 10121 10115 10106 10096 10093 10089 10085 10078 10072 10070 10067 10063 10062 10061 10059 10059 10059 10059 10057 10059 10061 10060 10061 10064 10066 10066 10067 10070 10073 10073 10077 10085 10094 10100
10186 10179 10175 10168 10163 10153 10138 10132 10125 10122 10111 10104 10100 10091 10085 10080 10076 10071 10066 10063 10059 10056 10054 10054 10051 10050 10052 10051 10050 10051 10052 10052 10055 10057 10058 10058 10060 10062 10066 10067 10071 10078 10083 10091
10171 10165 10160 10151 10149 10144 10129 10119 10113 10109 10101 10096 10091 10085 10080 10072 10067 10063 10059 10055 10053 10049 10047 10047 10044 10044 10045 10045 10043 10044 10045 10046 10048 10049 10050 10050 10054 10056 10060 10063 10067 10072 10077 10079
10153 10149 10143 10137 10130 10128 10121 10109 10099 10098 10089 10084 10082 10075 10072 10065 10060 10056 10051 10048 10045 10040 10040 10040 10038 10037 10038 10038 10037 10037 10037 10040 10041 10042 10043 10045 10048 10051 10054 10056 10060 10065 10070 10076
10135 10131 10125 10120 10115 10109 10103 10095 10087 10088 10079 10071 10069 10063 10060 10056 10051 10047 10044 10040 10037 10034 10033 10032 10029 10029 10032 10030 10031 10032 10032 10032 10034 10035 10036 10040 10042 10046 10048 10051 10055 10061 10064 10069
10115 10112 10106 10100 10096 10092 10084 10077 10076 10074 10067 10060 10058 10052 10050 10047 10044 10041 10037 10033 10030 10027 10025 10024 10022 10023 10024 10024 10025 10026 10026 10027 10027 10029 10030 10035 10038 10040 10043 10046 10051 10056 10059 10064
10092 10090 10086 10081 10074 10066 10065 10064 10061 10058 10054 10048 10047 10042 10039 10038 10035 10032 10029 10026 10023 10020 10019 10017 10016 10017 10017 10018 10019 10019 10020 10022 10022 10023 10025 10028 10033 10035 10038 10042 10046 10050 10053 10059
10069 10068 10067 10058 10047 10047 10045 10047 10045 10042 10039 10036 10034 10032 10029 10027 10025 10022 10021 10018 10016 10013 10011 10009 10009 10010 10011 10011 10012 10012 10015 10017 10018 10019 10019 10022 10027 10031 10035 10038 10042 10045 10049 10053
10044 10046 10043 10034 10024 10025 10028 10027 10025 10027 10023 10022 10020 10021 10019 10016 10015 10013 10012 10008 10007 10005 10003 10002 10002 10003 10003 10004 10004 10006 10008 10011 10012 10014 10015 10017 10020 10025 10029 10034 10037 10039 10042 10047
10022 10022 10011 10007 10012 10006 10007 10009 10006 10009 10010 10006 10007 10009 10006 10005 10002 10003 10002 9999 9998 9996 9995 9995 9995 9995 9996 9997 9999 9999 10001 10003 10006 10007 10009 10012 10014 10017 10021 10026 10030 10033 10038 10042
9999 9992 9986 9988 9993 9989 9989 9991 9990 9993 9993 9990 9995 9996 9995 9991 9988 9991 9990 9989 9989 9988 9987 9987 9987 9987 9988 9989 9991 9992 9993 9995 9998 10001 10003 10005 10008 10011 10013 10017 10023 10027 10031 10035